Time,TemperatureF,DewpointF,PressureIn,WindDirection,WindDirectionDegrees,WindSpeedMPH,WindSpeedGustMPH,Humidity,HourlyPrecipIn,Conditions,Clouds,dailyrainin,SoftwareType,DateUTC
2013-02-18 00:01:00,36.0,36.0,30.13,North,0,0.0,0.0,100,0.00,,,0.01,,2013-02-18 08:01:00,
2013-02-18 00:11:00,36.0,36.0,30.13,North,0,0.0,0.0,100,0.00,,,0.01,,2013-02-18 08:11:00,
2013-02-18 00:21:00,36.0,36.0,30.13,North,0,0.0,0.0,100,0.00,,,0.01,,2013-02-18 08:21:00,
2013-02-18 00:32:00,36.0,36.0,30.12,North,0,0.0,0.0,100,0.00,,,0.01,,2013-02-18 08:32:00,
2013-02-18 00:41:00,36.0,36.0,30.12,North,0,0.0,0.0,100,0.00,,,0.01,,2013-02-18 08:41:00,
2013-02-18 00:52:00,36.0,36.0,30.12,North,0,0.0,0.0,100,0.00,,,0.01,,2013-02-18 08:52:00,
2013-02-18 01:02:00,36.0,36.0,30.12,North,0,0.0,0.0,100,0.00,,,0.01,,2013-02-18 09:02:00,
2013-02-18 01:11:00,36.0,36.0,30.12,North,0,0.0,0.0,100,0.00,,,0.01,,2013-02-18 09:11:00,
2013-02-18 01:22:00,35.0,35.0,30.12,North,0,0.0,0.0,100,0.00,,,0.01,,2013-02-18 09:22:00,
2013-02-18 01:31:00,35.0,35.0,30.12,North,0,0.0,0.0,100,0.00,,,0.01,,2013-02-18 09:31:00,
2013-02-18 01:41:00,35.0,35.0,30.12,North,0,0.0,0.0,100,0.00,,,0.01,,2013-02-18 09:41:00,
2013-02-18 01:52:00,36.0,36.0,30.12,North,0,0.0,0.0,100,0.00,,,0.01,,2013-02-18 09:52:00,
2013-02-18 02:01:00,36.0,36.0,30.12,North,0,0.0,0.0,100,0.00,,,0.01,,2013-02-18 10:01:00,
2013-02-18 02:11:00,36.0,36.0,30.12,North,0,0.0,0.0,100,0.00,,,0.01,,2013-02-18 10:11:00,
2013-02-18 02:21:00,36.0,36.0,30.11,North,0,0.0,0.0,100,0.00,,,0.01,,2013-02-18 10:21:00,
2013-02-18 02:31:00,36.0,36.0,30.11,North,0,0.0,0.0,100,0.00,,,0.01,,2013-02-18 10:31:00,
2013-02-18 02:41:00,36.0,36.0,30.11,North,0,0.0,0.0,100,0.00,,,0.01,,2013-02-18 10:41:00,
2013-02-18 02:52:00,36.0,36.0,30.11,North,0,0.0,0.0,100,0.00,,,0.01,,2013-02-18 10:52:00,
2013-02-18 03:01:00,37.0,37.0,30.11,North,0,0.0,0.0,100,0.00,,,0.01,,2013-02-18 11:01:00,
2013-02-18 03:11:00,37.0,37.0,30.11,North,0,0.0,0.0,100,0.00,,,0.01,,2013-02-18 11:11:00,
2013-02-18 03:21:00,37.0,37.0,30.10,North,0,0.0,5.0,100,0.00,,,0.01,,2013-02-18 11:21:00,
2013-02-18 03:31:00,37.0,37.0,30.09,North,0,0.0,5.0,100,0.00,,,0.01,,2013-02-18 11:31:00,
2013-02-18 03:41:00,37.0,37.0,30.09,North,0,0.0,5.0,100,0.00,,,0.01,,2013-02-18 11:41:00,
2013-02-18 03:52:00,37.0,37.0,30.07,SE,142,3.0,4.0,100,0.00,,,0.01,,2013-02-18 11:52:00,
2013-02-18 04:01:00,37.0,37.0,30.08,SSE,161,4.0,4.0,100,0.00,,,0.01,,2013-02-18 12:01:00,
2013-02-18 04:11:00,37.0,37.0,30.08,SSE,161,4.0,4.0,100,0.00,,,0.01,,2013-02-18 12:11:00,
2013-02-18 04:21:00,37.0,37.0,30.08,North,0,0.0,5.0,100,0.00,,,0.01,,2013-02-18 12:21:00,
2013-02-18 04:31:00,37.0,37.0,30.08,North,0,0.0,0.0,100,0.00,,,0.01,,2013-02-18 12:31:00,
2013-02-18 04:41:00,37.0,37.0,30.08,North,0,0.0,0.0,100,0.00,,,0.01,,2013-02-18 12:41:00,
2013-02-18 04:52:00,37.0,37.0,30.08,SSE,155,4.0,4.0,100,0.00,,,0.01,,2013-02-18 12:52:00,
2013-02-18 05:01:00,36.0,36.0,30.08,North,0,0.0,4.0,100,0.00,,,0.01,,2013-02-18 13:01:00,
2013-02-18 05:11:00,36.0,36.0,30.08,North,0,0.0,4.0,100,0.00,,,0.01,,2013-02-18 13:11:00,
2013-02-18 05:22:00,36.0,36.0,30.07,North,0,0.0,0.0,100,0.00,,,0.01,,2013-02-18 13:22:00,
2013-02-18 05:31:00,37.0,37.0,30.07,SE,128,2.0,7.0,100,0.00,,,0.00,,2013-02-18 13:31:00,
2013-02-18 05:41:00,37.0,37.0,30.07,SE,128,2.0,7.0,100,0.00,,,0.00,,2013-02-18 13:41:00,
2013-02-18 05:53:00,37.0,37.0,30.08,East,93,0.0,4.0,100,0.00,,,0.00,,2013-02-18 13:53:00,
2013-02-18 06:01:00,36.0,36.0,30.07,East,82,0.0,1.0,100,0.00,,,0.00,,2013-02-18 14:01:00,
2013-02-18 06:11:00,36.0,36.0,30.07,East,82,0.0,1.0,100,0.00,,,0.00,,2013-02-18 14:11:00,
2013-02-18 06:21:00,36.0,36.0,30.07,North,0,0.0,4.0,100,0.00,,,0.00,,2013-02-18 14:21:00,
2013-02-18 06:31:00,36.0,36.0,30.07,North,0,0.0,0.0,100,0.00,,,0.00,,2013-02-18 14:31:00,
2013-02-18 06:41:00,36.0,36.0,30.07,North,0,0.0,0.0,100,0.00,,,0.00,,2013-02-18 14:41:00,
2013-02-18 06:53:00,36.0,36.0,30.07,North,0,0.0,0.0,100,0.00,,,0.00,,2013-02-18 14:53:00,
2013-02-18 07:01:00,36.0,36.0,30.07,North,0,0.0,0.0,100,0.00,,,0.00,,2013-02-18 15:01:00,
2013-02-18 07:11:00,36.0,36.0,30.07,North,0,0.0,0.0,100,0.00,,,0.00,,2013-02-18 15:11:00,
2013-02-18 07:21:00,36.0,36.0,30.07,North,0,0.0,0.0,100,0.00,,,0.00,,2013-02-18 15:21:00,
2013-02-18 07:31:00,37.0,37.0,30.07,North,0,0.0,0.0,100,0.00,,,0.00,,2013-02-18 15:31:00,
2013-02-18 07:41:00,37.0,37.0,30.07,North,0,0.0,0.0,100,0.00,,,0.00,,2013-02-18 15:41:00,
2013-02-18 07:52:00,37.0,37.0,30.07,North,0,0.0,2.0,100,0.00,,,0.00,,2013-02-18 15:52:00,
2013-02-18 08:01:00,37.0,37.0,30.08,North,0,0.0,5.0,100,0.00,,,0.00,,2013-02-18 16:01:00,
2013-02-18 08:11:00,37.0,37.0,30.08,North,0,0.0,5.0,100,0.00,,,0.00,,2013-02-18 16:11:00,
2013-02-18 08:21:00,38.0,38.0,30.07,North,0,0.0,0.0,100,0.00,,,0.00,,2013-02-18 16:21:00,
2013-02-18 08:31:00,38.0,38.0,30.07,North,0,0.0,5.0,100,0.00,,,0.00,,2013-02-18 16:31:00,
2013-02-18 08:41:00,38.0,38.0,30.07,North,0,0.0,5.0,100,0.00,,,0.00,,2013-02-18 16:41:00,
2013-02-18 08:52:00,38.0,38.0,30.07,SE,128,6.0,6.0,100,0.00,,,0.00,,2013-02-18 16:52:00,
2013-02-18 09:02:00,39.0,39.0,30.07,SE,137,5.0,7.0,100,0.00,,,0.00,,2013-02-18 17:02:00,
2013-02-18 09:11:00,39.0,39.0,30.07,SE,137,5.0,7.0,100,0.00,,,0.00,,2013-02-18 17:11:00,
2013-02-18 09:21:00,39.0,39.0,30.07,SE,140,6.0,9.0,100,0.00,,,0.00,,2013-02-18 17:21:00,
2013-02-18 09:41:00,40.0,40.0,30.06,SE,133,4.0,9.0,100,0.00,,,0.00,,2013-02-18 17:41:00,
2013-02-18 09:52:00,41.0,41.0,30.06,SSE,159,4.0,7.0,100,0.00,,,0.00,,2013-02-18 17:52:00,
2013-02-18 10:01:00,41.0,41.0,30.06,SSE,159,4.0,7.0,100,0.00,,,0.00,,2013-02-18 18:01:00,
2013-02-18 10:11:00,41.0,41.0,30.06,SSE,159,4.0,7.0,100,0.00,,,0.00,,2013-02-18 18:11:00,
2013-02-18 10:22:00,41.0,41.0,30.06,SSE,168,4.0,6.0,100,0.00,,,0.00,,2013-02-18 18:22:00,
2013-02-18 10:31:00,42.0,42.0,30.06,North,0,0.0,7.0,100,0.00,,,0.00,,2013-02-18 18:31:00,
2013-02-18 10:43:00,42.0,42.0,30.06,North,0,0.0,7.0,100,0.00,,,0.00,,2013-02-18 18:43:00,
2013-02-18 10:52:00,42.0,42.0,30.06,South,172,2.0,7.0,99,0.00,,,0.00,,2013-02-18 18:52:00,
2013-02-18 11:01:00,43.0,42.0,30.05,ESE,120,4.0,7.0,98,0.00,,,0.00,,2013-02-18 19:01:00,
2013-02-18 11:11:00,43.0,42.0,30.05,ESE,120,4.0,7.0,98,0.00,,,0.00,,2013-02-18 19:11:00,
2013-02-18 11:21:00,44.0,43.0,30.05,South,183,6.0,8.0,96,0.00,,,0.00,,2013-02-18 19:21:00,
2013-02-18 11:32:00,44.0,42.0,30.05,South,182,5.0,8.0,94,0.00,,,0.00,,2013-02-18 19:32:00,
2013-02-18 11:41:00,44.0,42.0,30.05,South,182,5.0,8.0,94,0.00,,,0.00,,2013-02-18 19:41:00,
2013-02-18 11:52:00,44.0,42.0,30.04,SW,236,3.0,11.0,94,0.00,,,0.00,,2013-02-18 19:52:00,
2013-02-18 12:01:00,44.0,42.0,30.04,SW,225,3.0,11.0,94,0.01,,,0.01,,2013-02-18 20:01:00,
2013-02-18 12:11:00,44.0,42.0,30.04,SW,225,3.0,11.0,94,0.01,,,0.01,,2013-02-18 20:11:00,
2013-02-18 12:21:00,44.0,43.0,30.04,SW,219,6.0,9.0,95,0.01,,,0.01,,2013-02-18 20:21:00,
2013-02-18 12:31:00,44.0,43.0,30.03,SSW,211,9.0,12.0,95,0.01,,,0.01,,2013-02-18 20:31:00,
2013-02-18 12:41:00,44.0,43.0,30.03,SSW,211,9.0,12.0,95,0.01,,,0.01,,2013-02-18 20:41:00,
2013-02-18 12:52:00,44.0,42.0,30.03,SSW,211,8.0,13.0,94,0.01,,,0.01,,2013-02-18 20:52:00,
2013-02-18 13:01:00,43.0,42.0,30.02,SSW,212,11.0,15.0,95,0.00,,,0.01,,2013-02-18 21:01:00,
2013-02-18 13:11:00,43.0,42.0,30.02,SSW,212,11.0,15.0,95,0.00,,,0.01,,2013-02-18 21:11:00,
2013-02-18 13:21:00,44.0,43.0,30.01,SW,224,11.0,16.0,95,0.00,,,0.01,,2013-02-18 21:21:00,
2013-02-18 13:31:00,44.0,42.0,30.01,South,179,11.0,12.0,94,0.00,,,0.01,,2013-02-18 21:31:00,
2013-02-18 13:41:00,44.0,42.0,30.01,South,179,11.0,12.0,94,0.00,,,0.01,,2013-02-18 21:41:00,
2013-02-18 13:52:00,45.0,43.0,30.00,SSW,210,12.0,13.0,93,0.00,,,0.01,,2013-02-18 21:52:00,
2013-02-18 14:01:00,45.0,43.0,30.00,SSW,204,11.0,19.0,92,0.00,,,0.01,,2013-02-18 22:01:00,
2013-02-18 14:11:00,45.0,43.0,29.99,SSE,158,8.0,12.0,92,0.00,,,0.01,,2013-02-18 22:11:00,
2013-02-18 14:21:00,45.0,43.0,29.99,SSE,158,8.0,12.0,92,0.00,,,0.01,,2013-02-18 22:21:00,
2013-02-18 14:32:00,45.0,43.0,29.99,SW,221,9.0,13.0,92,0.00,,,0.01,,2013-02-18 22:32:00,
2013-02-18 14:41:00,45.0,43.0,29.99,SW,221,9.0,13.0,92,0.00,,,0.01,,2013-02-18 22:41:00,
2013-02-18 14:53:00,45.0,42.0,29.99,SSW,203,10.0,15.0,90,0.00,,,0.01,,2013-02-18 22:53:00,
2013-02-18 15:11:00,46.0,42.0,29.98,SSW,212,8.0,15.0,87,0.00,,,0.01,,2013-02-18 23:11:00,
2013-02-18 15:21:00,45.0,42.0,29.97,SSW,210,12.0,16.0,89,0.00,,,0.01,,2013-02-18 23:21:00,
2013-02-18 15:32:00,45.0,42.0,29.97,SW,224,7.0,16.0,90,0.00,,,0.01,,2013-02-18 23:32:00,
2013-02-18 15:41:00,45.0,42.0,29.97,SW,224,7.0,16.0,90,0.00,,,0.01,,2013-02-18 23:41:00,
2013-02-18 15:53:00,45.0,43.0,29.96,SSW,204,10.0,19.0,91,0.00,,,0.01,,2013-02-18 23:53:00,
2013-02-18 16:01:00,46.0,44.0,29.96,SSW,211,13.0,20.0,91,0.00,,,0.01,,2013-02-19 00:01:00,
2013-02-18 16:11:00,46.0,44.0,29.96,SSW,211,13.0,20.0,91,0.00,,,0.01,,2013-02-19 00:11:00,
2013-02-18 16:32:00,45.0,42.0,29.93,South,191,11.0,16.0,89,0.00,,,0.01,,2013-02-19 00:32:00,
2013-02-18 16:41:00,45.0,42.0,29.93,South,191,11.0,16.0,89,0.00,,,0.01,,2013-02-19 00:41:00,
2013-02-18 16:53:00,45.0,42.0,29.93,SSW,210,12.0,18.0,89,0.00,,,0.01,,2013-02-19 00:53:00,
2013-02-18 17:02:00,45.0,42.0,29.92,South,183,9.0,12.0,89,0.00,,,0.01,,2013-02-19 01:02:00,
2013-02-18 17:11:00,45.0,42.0,29.92,South,183,9.0,12.0,89,0.00,,,0.01,,2013-02-19 01:11:00,
2013-02-18 17:21:00,45.0,42.0,29.91,SSW,200,9.0,16.0,89,0.00,,,0.01,,2013-02-19 01:21:00,
2013-02-18 17:31:00,45.0,42.0,29.90,SW,214,9.0,11.0,89,0.00,,,0.01,,2013-02-19 01:31:00,
2013-02-18 17:41:00,45.0,42.0,29.90,SW,214,9.0,11.0,89,0.00,,,0.01,,2013-02-19 01:41:00,
2013-02-18 17:54:00,44.0,41.0,29.90,SSW,194,12.0,13.0,89,0.00,,,0.01,,2013-02-19 01:54:00,
2013-02-18 18:01:00,44.0,42.0,29.90,SW,215,4.0,15.0,91,0.01,,,0.01,,2013-02-19 02:01:00,
2013-02-18 18:11:00,44.0,42.0,29.90,SW,215,4.0,15.0,91,0.01,,,0.01,,2013-02-19 02:11:00,
2013-02-18 18:21:00,43.0,41.0,29.89,SSE,151,7.0,9.0,93,0.03,,,0.03,,2013-02-19 02:21:00,
2013-02-18 18:33:00,43.0,41.0,29.88,SSW,201,9.0,11.0,94,0.05,,,0.05,,2013-02-19 02:33:00,
2013-02-18 18:41:00,43.0,41.0,29.88,SSW,201,9.0,11.0,94,0.05,,,0.05,,2013-02-19 02:41:00,
2013-02-18 18:53:00,43.0,42.0,29.88,WSW,243,9.0,11.0,96,0.07,,,0.08,,2013-02-19 02:53:00,
2013-02-18 19:01:00,42.0,41.0,29.88,SW,221,7.0,13.0,97,0.10,,,0.11,,2013-02-19 03:01:00,
2013-02-18 19:11:00,42.0,41.0,29.88,SW,221,7.0,13.0,97,0.10,,,0.11,,2013-02-19 03:11:00,
2013-02-18 19:21:00,43.0,43.0,29.87,SW,217,13.0,17.0,99,0.11,,,0.16,,2013-02-19 03:21:00,
2013-02-18 19:31:00,43.0,43.0,29.87,SSW,211,12.0,17.0,100,0.13,,,0.18,,2013-02-19 03:31:00,
2013-02-18 19:42:00,43.0,43.0,29.87,SSW,211,12.0,17.0,100,0.13,,,0.18,,2013-02-19 03:42:00,
2013-02-18 19:53:00,43.0,43.0,29.86,SW,217,13.0,17.0,100,0.13,,,0.20,,2013-02-19 03:53:00,
2013-02-18 20:11:00,43.0,43.0,29.86,SSW,207,9.0,20.0,100,0.11,,,0.20,,2013-02-19 04:11:00,
2013-02-18 20:21:00,42.0,42.0,29.85,SSW,204,9.0,13.0,100,0.07,,,0.21,,2013-02-19 04:21:00,
2013-02-18 20:31:00,42.0,42.0,29.84,SSE,165,7.0,8.0,100,0.04,,,0.23,,2013-02-19 04:31:00,
2013-02-18 20:42:00,42.0,42.0,29.84,SSE,165,7.0,8.0,100,0.04,,,0.23,,2013-02-19 04:42:00,
2013-02-18 20:52:00,42.0,42.0,29.83,SSW,200,12.0,15.0,100,0.04,,,0.24,,2013-02-19 04:52:00,
2013-02-18 21:01:00,42.0,42.0,29.83,South,173,9.0,15.0,100,0.05,,,0.25,,2013-02-19 05:01:00,
2013-02-18 21:12:00,42.0,42.0,29.83,South,173,9.0,15.0,100,0.05,,,0.25,,2013-02-19 05:12:00,
2013-02-18 21:22:00,41.0,41.0,29.83,SSW,204,7.0,12.0,100,0.04,,,0.25,,2013-02-19 05:22:00,
2013-02-18 21:31:00,41.0,41.0,29.83,North,0,8.0,9.0,100,0.05,,,0.27,,2013-02-19 05:31:00,
2013-02-18 21:42:00,41.0,41.0,29.83,North,0,8.0,9.0,100,0.05,,,0.27,,2013-02-19 05:42:00,
2013-02-18 21:52:00,41.0,41.0,29.82,SSE,166,5.0,12.0,100,0.04,,,0.28,,2013-02-19 05:52:00,
2013-02-18 22:02:00,41.0,41.0,29.82,North,0,0.0,11.0,100,0.04,,,0.29,,2013-02-19 06:02:00,
2013-02-18 22:11:00,41.0,41.0,29.82,North,0,0.0,11.0,100,0.04,,,0.29,,2013-02-19 06:11:00,
2013-02-18 22:21:00,41.0,41.0,29.81,SE,127,6.0,6.0,100,0.05,,,0.30,,2013-02-19 06:21:00,
2013-02-18 22:32:00,40.0,40.0,29.81,SE,138,2.0,11.0,100,0.03,,,0.31,,2013-02-19 06:32:00,
2013-02-18 22:41:00,40.0,40.0,29.81,SE,138,2.0,11.0,100,0.03,,,0.31,,2013-02-19 06:41:00,
2013-02-18 22:52:00,40.0,40.0,29.80,SSE,168,5.0,9.0,100,0.02,,,0.31,,2013-02-19 06:52:00,
2013-02-18 23:01:00,40.0,40.0,29.80,ESE,107,4.0,12.0,100,0.01,,,0.31,,2013-02-19 07:01:00,
2013-02-18 23:11:00,40.0,40.0,29.80,ESE,107,4.0,12.0,100,0.01,,,0.31,,2013-02-19 07:11:00,
2013-02-18 23:21:00,40.0,40.0,29.79,South,176,7.0,13.0,100,0.00,,,0.31,,2013-02-19 07:21:00,
2013-02-18 23:31:00,40.0,40.0,29.78,SSE,166,4.0,9.0,100,0.00,,,0.31,,2013-02-19 07:31:00,
2013-02-18 23:41:00,40.0,40.0,29.78,SSE,166,4.0,9.0,100,0.00,,,0.31,,2013-02-19 07:41:00,
2013-02-18 23:52:00,40.0,40.0,29.77,ESE,102,8.0,12.0,100,0.00,,,0.31,,2013-02-19 07:52:00,